Temperature
21 21 21 21 20 20 20 20 20 19 19 19 19 19 19 19 19 19 19 19 19 19 19 19 19 19 19 19 19 19 19 19 19 19 19 19 19 19 18 18 18 18 18
22 22 21 21 21 20 20 20 20 19 19 19 19 19 19 19 19 19 19 19 19 19 19 19 19 19 19 19 19 19 19 19 19 19 19 19 19 19 18 18 18 18 18
22 21 21 21 20 20 20 20 19 19 19 19 19 19 19 19 19 19 19 19 19 19 19 19 19 19 19 19 19 19 19 19 19 19 19 19 19 18 18 18 18 18 18
22 21 21 21 20 20 20 20 19 19 19 19 19 19 19 19 19 19 19 19 19 19 19 19 19 19 19 19 19 19 19 19 19 19 18 18 18 18 18 18 18 18 18
22 21 21 21 21 20 20 20 20 20 19 19 19 20 20 19 19 19 19 19 19 19 19 19 19 19 19 19 19 19 19 19 19 19 18 18 18 18 18 18 18 18 18
21 21 21 21 21 20 20 20 20 20 20 19 19 19 19 19 19 19 19 19 19 19 19 19 19 19 19 19 19 19 19 19 19 18 18 18 19 19 19 18 18 18 18
22 21 21 21 21 21 20 20 20 20 20 20 20 20 19 19 19 19 19 19 19 19 19 19 19 19 19 19 19 19 19 19 19 18 18 18 18 19 18 18 18 18 18
22 22 22 21 21 21 21 20 20 20 20 20 20 20 20 19 19 19 19 19 19 19 19 19 19 19 19 19 19 19 19 19 18 18 18 18 18 18 18 18 18 18 18
22 21 21 21 21 21 21 21 20 20 20 20 20 20 20 19 19 19 19 19 19 19 19 19 19 19 19 19 19 19 19 19 19 18 18 19 18 19 18 18 18 18 18
22 22 21 21 21 21 21 20 20 20 20 20 20 20 19 19 19 19 19 19 19 19 19 19 19 19 19 19 19 19 19 19 19 19 19 19 19 19 18 18 18 18 18
22 22 22 21 21 21 21 20 20 20 20 20 20 19 19 19 19 19 19 19 19 19 19 19 19 19 19 19 19 19 19 19 19 19 19 19 19 19 18 18 18 18 18
22 22 22 21 21 21 20 20 20 20 20 20 20 19 19 19 19 19 19 19 19 19 19 19 19 19 19 19 19 19 19 19 19 19 19 19 19 19 18 18 18 18 18
22 22 22 21 21 21 20 20 20 20 20 20 20 19 19 19 19 19 19 19 19 19 19 19 19 19 19 19 19 19 19 19 19 19 19 19 19 19 18 18 18 18 18
22 22 21 21 21 21 21 20 20 20 20 20 20 19 19 19 19 19 19 19 19 19 19 19 19 19 19 19 19 19 19 19 19 19 19 19 19 19 18 18 18 18 18
22 21 21 21 20 20 20 20 20 20 20 20 19 19 19 19 19 19 18 18 18 19 18 18 18 18 19 19 19 19 19 19 19 19 19 19 19 18 18 18 18 18 18
22 21 21 21 20 20 20 20 20 20 20 19 19 19 19 19 19 19 18 18 18 18 18 18 18 18 18 18 19 19 18 18 18 18 18 18 18 18 18 18 18 18 18
22 21 21 21 20 20 20 20 20 20 19 19 19 19 19 19 19 19 18 18 18 18 18 18 19 19 18 18 18 18 18 18 18 18 18 18 18 18 18 18 18 18 18
22 21 21 21 20 20 20 20 20 20 19 19 19 19 19 19 19 18 18 18 18 18 18 18 18 18 18 18 18 18 18 18 18 18 18 18 18 18 18 18 18 18 18
22 21 21 21 20 20 20 20 20 20 19 19 19 19 19 19 19 19 18 18 18 18 18 18 18 18 18 18 18 18 18 18 18 18 18 18 18 18 18 18 18 18 18
21 21 21 21 20 20 20 20 20 19 19 19 19 19 19 19 19 18 18 18 18 18 18 18 18 18 18 18 18 18 18 18 18 18 18 18 18 18 18 18 18 18 17
22 21 21 21 20 20 20 20 20 19 19 19 19 19 19 19 19 18 18 18 18 18 18 18 18 18 18 18 18 18 18 18 18 18 18 18 18 18 18 18 18 18 17
22 21 21 21 20 20 20 20 20 19 19 19 19 19 19 19 18 18 18 18 18 18 18 18 18 18 18 18 18 18 18 18 18 18 18 18 18 18 18 18 18 17 17
22 21 21 21 20 20 20 20 19 19 19 19 19 19 19 18 18 18 18 18 18 18 18 18 18 18 18 18 18 18 18 18 18 18 18 18 18 18 18 18 17 17 17
22 21 21 21 20 20 20 20 19 19 19 19 19 19 18 18 18 18 18 18 18 18 18 18 18 18 18 18 18 19 19 19 18 18 18 18 18 18 18 18 17 17 17
23 22 21 20 20 20 20 19 19 19 19 19 18 18 18 18 18 18 18 18 18 18 18 18 18 18 18 18 18 18 18 18 19 18 18 18 18 18 18 18 18 17 17
23 22 21 20 20 20 19 19 19 19 19 18 18 18 18 18 18 18 18 18 18 18 18 18 17 18 18 18 18 18 18 18 18 18 18 18 18 18 18 18 17 17 17
Wind_Speed
7 8 10 9 8 8 7 6 6 5 5 4 4 4 4 4 5 5 5 6 6 7 7 9 9 9 9 8 8 8 8 9 9 9 10 10 10 10 10 10 10 8 9
9 9 11 10 8 7 6 6 6 5 4 4 4 5 5 5 5 6 6 6 6 7 7 8 8 8 9 9 9 9 9 9 9 10 11 10 9 10 10 9 8 8 9
11 11 12 11 9 7 6 6 6 5 5 4 5 5 5 5 6 6 6 6 6 6 7 8 8 7 8 9 9 9 9 10 10 11 11 9 10 11 10 10 10 9 10
12 11 12 11 9 7 6 6 6 5 5 5 5 5 5 5 6 6 6 6 6 6 6 7 7 7 8 9 9 9 10 10 10 10 9 8 9 11 11 11 11 10 10
11 11 12 11 9 7 6 6 5 5 4 5 5 5 5 5 5 5 5 5 6 6 6 7 7 6 7 8 9 9 10 10 10 9 6 7 8 11 12 11 11 11 10
11 11 11 11 9 7 6 6 5 5 5 5 5 5 4 4 5 5 5 5 6 6 6 6 6 6 7 7 8 9 10 10 9 7 6 7 8 10 11 11 12 11 10
10 10 10 11 9 7 7 7 6 6 6 5 5 5 4 4 5 6 6 6 6 5 5 5 6 6 7 8 9 9 9 9 8 6 5 6 8 11 11 12 11 11 10
10 10 10 10 10 8 9 9 8 7 6 6 5 5 4 5 6 6 6 6 6 5 5 5 5 6 6 8 9 9 9 9 7 6 7 7 10 11 12 12 12 11 10
10 9 9 9 8 8 9 10 8 8 7 6 6 5 4 4 6 6 6 6 6 5 5 5 5 6 7 8 8 8 8 8 4 3 6 7 10 12 12 12 11 11 10
9 8 8 8 7 7 8 9 8 8 8 6 5 4 3 4 5 7 7 7 6 5 5 5 6 6 8 8 8 8 7 5 4 4 5 8 12 13 13 12 11 10 10
9 8 7 7 6 6 8 9 8 7 6 5 4 3 2 2 4 6 6 8 6 5 5 5 6 6 7 8 9 9 7 4 4 5 7 10 13 14 13 12 10 9 9
8 8 8 8 7 6 7 6 5 5 5 4 4 2 2 3 4 6 7 6 5 4 4 5 5 5 6 5 7 9 5 5 5 5 8 12 13 13 13 11 10 9 9
8 8 8 9 7 7 6 5 3 3 4 4 5 4 5 4 4 6 4 4 3 3 2 3 3 2 3 3 3 5 5 5 4 5 8 12 13 13 12 11 10 10 9
9 9 8 8 8 7 6 4 4 4 3 4 5 5 5 3 4 4 3 2 2 2 1 1 1 1 2 3 3 3 4 5 5 6 9 13 13 13 12 11 11 10 9
8 9 8 8 7 6 5 4 5 4 5 5 4 5 5 4 4 4 3 2 1 2 2 2 1 1 2 3 3 4 5 6 6 7 7 12 12 12 12 11 10 10 9
8 7 7 7 7 5 4 3 3 4 4 4 4 6 5 5 4 3 3 2 2 2 2 2 1 2 3 3 4 4 4 4 5 7 8 9 11 12 11 10 9 9 9
8 6 6 7 6 5 4 3 3 4 4 4 4 5 5 5 4 3 2 3 3 2 3 2 3 3 3 4 4 4 4 4 4 5 7 8 8 10 10 10 9 9 9
8 7 5 6 7 5 4 3 3 4 4 4 4 4 5 5 4 3 3 3 3 3 3 3 3 4 4 3 4 3 3 3 4 4 5 7 7 7 9 10 9 9 9
8 7 7 5 6 5 4 3 3 4 4 4 4 4 4 4 4 3 3 3 3 3 4 4 5 4 4 3 3 3 3 2 2 3 3 5 7 8 8 9 10 9 9
8 7 6 5 5 3 3 3 2 3 3 4 4 4 4 4 5 3 3 3 3 4 4 4 4 3 2 2 3 3 2 2 2 2 2 2 5 7 8 8 8 8 9
9 7 6 4 4 3 2 2 2 2 3 3 3 4 4 5 5 4 4 4 3 3 3 2 2 2 2 2 2 2 2 2 2 2 1 1 2 5 7 8 7 7 7
9 7 6 5 4 3 2 1 2 2 2 3 4 4 5 5 4 4 4 3 3 3 3 2 2 2 2 2 1 1 1 1 1 2 2 2 2 3 4 6 7 6 6
9 7 6 5 5 3 2 2 2 2 2 3 4 4 4 4 4 4 4 3 3 2 2 2 2 2 1 1 1 0 1 1 1 1 1 1 2 2 3 4 6 6 6
9 8 8 6 5 3 2 2 2 3 3 3 3 3 3 3 4 4 3 3 3 3 3 2 3 2 1 1 1 0 0 1 1 0 1 1 1 1 1 2 4 5 6
10 10 8 7 5 4 3 3 3 3 3 3 2 3 3 3 4 3 3 3 3 2 3 3 3 3 2 2 2 1 1 1 1 1 1 1 0 0 1 2 3 4 5
10 10 9 7 5 4 3 3 3 3 2 3 3 3 2 2 3 3 3 3 3 3 2 3 2 3 3 3 3 2 1 1 1 0 1 1 1 0 1 2 2 3 5
Wind_Direction
95 109 115 107 101 98 99 100 97 94 96 93 93 94 102 110 124 128 132 133 137 141 145 150 154 158 157 153 151 150 150 153 155 155 156 156 159 160 161 159 158 149 145
93 103 111 105 99 97 94 98 95 91 87 85 90 100 104 108 124 131 131 133 138 145 148 151 154 159 162 163 166 166 165 167 170 167 165 167 170 169 171 170 162 150 149
89 100 106 105 102 99 96 99 101 90 88 87 102 104 103 106 119 127 131 134 137 143 149 151 153 162 168 174 177 177 177 179 181 180 179 177 173 174 170 164 160 161 157
93 96 100 104 102 103 104 104 100 91 86 95 104 104 106 114 121 129 134 138 138 140 144 149 157 170 176 177 179 182 185 188 190 190 189 181 171 168 170 169 169 166 164
93 95 102 106 107 109 111 110 105 102 98 104 105 102 105 115 125 132 134 139 142 146 152 157 164 174 179 183 187 190 192 197 199 200 187 177 161 163 170 172 172 170 169
99 102 109 114 114 116 121 120 120 118 115 114 113 106 108 120 133 140 140 138 140 146 152 158 166 174 180 189 195 196 199 200 208 201 186 168 150 156 165 167 170 170 168
96 105 112 118 115 112 119 126 130 130 127 122 121 114 118 132 144 144 137 135 137 144 149 160 174 187 193 198 199 198 199 204 208 190 160 146 148 159 160 159 163 166 163
95 104 113 116 117 114 112 121 129 131 131 127 125 122 129 141 144 140 139 144 147 151 159 170 185 199 202 205 206 203 206 210 200 177 143 142 156 163 159 157 158 157 155
95 103 114 119 121 123 119 117 124 128 127 124 125 124 130 144 150 152 152 153 154 163 176 190 196 201 206 209 211 207 208 201 201 156 152 143 157 157 156 157 158 159 158
88 91 103 120 122 128 126 130 131 130 124 123 122 124 134 151 165 167 159 160 162 169 184 200 201 202 206 207 207 208 210 198 185 157 136 141 153 154 155 156 159 160 161
78 82 82 87 93 110 113 119 135 139 133 131 129 141 147 162 161 167 143 154 165 177 194 208 207 200 202 203 205 207 206 176 136 132 129 138 144 150 154 156 157 158 162
78 79 73 67 69 73 82 108 123 118 120 115 92 90 101 85 113 113 125 146 162 174 196 207 211 206 211 199 188 194 186 158 142 132 130 141 145 152 154 156 158 160 160
80 75 72 70 63 63 66 79 86 94 104 95 80 62 73 68 85 102 119 137 150 166 189 184 204 205 175 169 162 163 159 140 124 114 125 141 144 148 151 154 157 157 160
86 84 72 71 62 53 54 58 69 72 72 70 70 59 62 61 59 70 78 78 80 91 76 70 114 83 98 104 117 127 117 116 114 108 123 139 142 145 150 155 160 161 163
88 87 82 78 70 59 52 43 63 66 67 71 67 68 68 70 68 63 67 61 49 82 79 46 66 76 81 81 92 92 95 108 122 124 128 142 148 151 154 157 164 169 170
93 91 92 88 83 73 67 54 52 64 66 67 73 69 70 73 75 72 70 53 32 48 51 45 64 103 108 93 85 75 81 94 118 128 135 142 148 151 154 158 166 170 172
102 95 97 101 91 76 63 60 67 70 73 70 71 77 73 75 73 72 65 54 41 51 65 58 59 80 99 97 100 90 86 92 106 129 140 145 147 151 156 158 165 169 171
106 100 90 93 97 86 63 53 50 67 79 77 72 76 69 71 73 60 67 61 44 45 45 51 49 64 77 89 93 96 98 104 123 133 141 144 147 151 156 162 161 161 166
107 106 98 87 93 92 83 77 66 70 78 79 77 69 61 63 67 54 56 60 56 48 39 48 57 52 63 74 92 100 101 112 123 127 128 144 144 144 152 161 161 163 164
118 113 108 103 94 97 90 80 70 74 78 79 77 68 66 60 58 49 62 46 51 59 48 40 41 43 49 60 70 77 87 108 105 107 129 129 136 145 149 151 157 163 164
126 119 117 115 106 103 86 86 85 81 87 87 92 81 70 63 59 47 53 47 46 60 66 58 45 46 41 63 78 81 92 110 116 121 121 118 135 137 139 145 151 149 155
131 132 136 125 113 102 96 102 117 108 99 94 78 84 74 69 64 61 54 49 49 51 45 45 43 26 29 52 70 94 76 62 57 114 131 146 133 130 137 142 137 138 143
142 141 130 112 109 105 101 97 90 100 81 82 84 80 68 68 68 59 50 47 41 46 42 38 22 24 10 5 48 60 108 121 57 47 59 86 83 124 146 142 137 142 145
144 138 124 116 106 99 98 96 109 103 94 85 89 93 90 84 82 76 67 50 37 41 41 9 36 355 337 314 296 318 93 117 140 144 350 72 107 142 155 151 135 126 135
149 139 131 121 115 108 105 90 91 95 97 91 94 92 92 90 85 70 64 51 52 47 31 25 16 2 349 345 343 354 358 276 236 176 197 196 182 166 178 133 124 122 126
145 139 134 125 123 119 111 100 97 92 95 112 116 120 109 101 93 79 75 46 40 35 25 16 5 359 358 354 350 345 335 321 298 213 215 192 173 215 134 109 134 146 139
Height
1473 1472 1472 1473 1475 1475 1476 1477 1478 1479 1480 1480 1481 1482 1482 1483 1484 1486 1488 1490 1492 1493 1495 1497 1498 1500 1502 1504 1506 1508 1510 1512 1515 1517 1519 1521 1523 1524 1526 1528 1529 1530 1532
1472 1469 1469 1472 1475 1476 1476 1477 1478 1479 1480 1480 1481 1482 1482 1483 1484 1486 1488 1490 1492 1493 1495 1497 1499 1500 1502 1504 1506 1508 1510 1512 1514 1517 1519 1521 1522 1524 1525 1527 1529 1530 1531
1473 1470 1470 1473 1475 1476 1476 1477 1478 1479 1479 1479 1480 1482 1483 1483 1485 1487 1488 1490 1492 1493 1495 1497 1499 1500 1502 1504 1506 1508 1510 1512 1514 1516 1518 1520 1522 1524 1525 1527 1528 1530 1531
1476 1474 1474 1475 1476 1476 1477 1477 1478 1479 1479 1480 1481 1482 1483 1484 1485 1487 1488 1490 1492 1493 1495 1497 1498 1500 1501 1503 1505 1507 1509 1512 1514 1516 1518 1520 1521 1523 1525 1526 1528 1529 1531
1479 1478 1477 1477 1476 1476 1477 1477 1477 1478 1479 1480 1482 1483 1483 1484 1485 1487 1489 1490 1492 1493 1495 1496 1498 1499 1501 1503 1504 1506 1509 1511 1513 1515 1517 1519 1521 1522 1524 1525 1527 1528 1530
1481 1479 1478 1477 1477 1476 1475 1476 1476 1478 1479 1481 1482 1483 1484 1484 1486 1487 1489 1490 1492 1493 1495 1496 1497 1498 1500 1501 1503 1505 1507 1510 1512 1515 1517 1518 1520 1521 1523 1524 1525 1527 1529
1482 1481 1480 1479 1477 1475 1473 1473 1475 1477 1479 1481 1482 1483 1484 1484 1486 1487 1489 1490 1492 1493 1494 1495 1496 1497 1499 1500 1502 1504 1506 1509 1511 1514 1515 1517 1518 1520 1522 1523 1524 1526 1528
1483 1482 1481 1480 1479 1477 1475 1474 1475 1478 1480 1482 1483 1484 1484 1485 1486 1487 1489 1490 1491 1492 1493 1494 1495 1495 1497 1499 1501 1503 1505 1508 1510 1513 1514 1515 1517 1519 1521 1523 1524 1526 1528
1485 1484 1483 1482 1481 1480 1479 1478 1478 1480 1482 1484 1484 1485 1485 1485 1485 1487 1488 1490 1491 1492 1492 1493 1493 1494 1495 1497 1499 1501 1504 1507 1509 1511 1512 1514 1516 1518 1520 1522 1524 1526 1527
1487 1486 1485 1485 1484 1483 1483 1483 1483 1484 1485 1486 1486 1486 1485 1484 1484 1486 1488 1490 1491 1491 1492 1492 1492 1493 1494 1496 1498 1501 1504 1506 1508 1509 1511 1512 1514 1517 1519 1521 1523 1525 1527
1489 1489 1489 1488 1487 1487 1487 1487 1487 1487 1488 1488 1488 1487 1486 1483 1483 1485 1489 1490 1491 1491 1491 1491 1491 1491 1492 1495 1498 1501 1503 1505 1506 1508 1510 1512 1514 1517 1519 1521 1523 1525 1526
1491 1491 1491 1491 1491 1490 1490 1489 1489 1490 1490 1491 1491 1489 1488 1486 1486 1487 1490 1491 1492 1492 1491 1491 1491 1491 1492 1495 1498 1500 1502 1505 1506 1508 1510 1512 1514 1517 1519 1521 1522 1524 1526
1494 1494 1494 1493 1493 1493 1492 1492 1493 1493 1493 1493 1493 1492 1491 1490 1490 1490 1491 1492 1492 1492 1492 1491 1491 1491 1492 1494 1497 1499 1502 1503 1506 1508 1510 1512 1514 1516 1518 1520 1522 1523 1525
1496 1496 1496 1495 1495 1495 1495 1495 1495 1496 1496 1496 1495 1495 1494 1493 1493 1493 1494 1494 1493 1493 1493 1492 1492 1492 1493 1495 1497 1499 1501 1503 1506 1508 1510 1512 1514 1516 1518 1519 1521 1523 1524
1497 1498 1498 1497 1497 1497 1497 1497 1498 1498 1498 1498 1498 1497 1496 1496 1496 1496 1496 1496 1495 1495 1494 1493 1493 1493 1494 1496 1498 1500 1502 1504 1506 1508 1510 1512 1514 1516 1518 1519 1521 1522 1524
1498 1499 1499 1499 1499 1499 1499 1499 1500 1500 1500 1500 1499 1499 1499 1498 1498 1498 1498 1498 1497 1497 1496 1494 1494 1494 1496 1498 1500 1502 1503 1506 1507 1509 1511 1512 1514 1516 1517 1519 1520 1521 1523
1499 1500 1500 1500 1500 1500 1501 1501 1502 1502 1501 1501 1501 1501 1501 1501 1500 1500 1500 1500 1500 1499 1498 1496 1495 1496 1498 1500 1502 1503 1505 1507 1508 1509 1511 1513 1514 1516 1517 1519 1520 1521 1522
1500 1500 1501 1502 1502 1502 1502 1502 1503 1503 1503 1503 1503 1503 1503 1503 1503 1502 1502 1502 1502 1501 1501 1499 1498 1499 1500 1502 1504 1505 1507 1508 1510 1511 1513 1514 1515 1516 1517 1519 1520 1521 1521
1500 1501 1502 1503 1503 1503 1503 1504 1504 1505 1505 1505 1505 1504 1504 1504 1505 1504 1504 1504 1504 1504 1503 1503 1502 1502 1503 1505 1506 1507 1509 1510 1511 1513 1514 1515 1516 1517 1517 1519 1520 1520 1521
1501 1502 1503 1503 1504 1504 1505 1505 1506 1506 1506 1506 1506 1506 1506 1506 1506 1506 1506 1506 1506 1506 1505 1505 1505 1506 1507 1507 1508 1509 1510 1512 1513 1514 1515 1516 1517 1518 1518 1519 1519 1520 1521
1501 1502 1503 1504 1505 1505 1506 1506 1506 1507 1507 1508 1508 1507 1507 1507 1507 1507 1507 1507 1507 1507 1507 1508 1507 1508 1509 1510 1510 1511 1512 1513 1514 1515 1516 1516 1517 1518 1519 1519 1519 1520 1520
1501 1502 1503 1504 1505 1506 1506 1507 1508 1508 1509 1509 1509 1509 1509 1509 1509 1509 1509 1509 1509 1509 1508 1509 1509 1509 1510 1511 1512 1512 1513 1515 1515 1516 1516 1517 1518 1518 1519 1519 1519 1519 1520
1501 1502 1503 1504 1505 1506 1507 1507 1508 1509 1509 1510 1510 1510 1510 1510 1510 1510 1510 1510 1510 1510 1510 1510 1510 1510 1511 1512 1513 1514 1514 1514 1515 1516 1516 1517 1517 1518 1518 1518 1519 1519 1519
1501 1502 1503 1504 1505 1506 1507 1507 1508 1509 1509 1510 1510 1510 1511 1511 1511 1511 1511 1511 1511 1511 1511 1511 1511 1511 1512 1512 1513 1514 1514 1515 1515 1516 1517 1516 1517 1517 1518 1518 1518 1518 1518
1500 1501 1502 1504 1505 1506 1506 1507 1508 1509 1510 1510 1511 1511 1511 1511 1511 1511 1511 1511 1511 1511 1511 1511 1511 1511 1512 1512 1513 1513 1514 1514 1515 1515 1515 1516 1516 1516 1517 1517 1517 1517 1517
1499 1501 1502 1503 1504 1505 1506 1507 1508 1509 1510 1510 1511 1511 1512 1512 1512 1511 1511 1511 1511 1511 1511 1511 1511 1511 1512 1512 1512 1513 1513 1514 1514 1514 1514 1515 1515 1515 1516 1516 1516 1516 1516